Evenes, Norway

3:51 AM CEST on October 18, 2017 (GMT +0200)
Evenes

Weather History for ENEV - January, 2014

Change the Weather History Date:

Wednesday, January 1, 2014

  Actual Average Record
Temperature  
Mean Temperature 34 °F -  
Max Temperature 35 °F 27 °F 46 °F (2016)
Min Temperature 32 °F 18 °F -2 °F (2003)
Degree Days  
Heating Degree Days 32    
Moisture  
Dew Point 23 °F    
Average Humidity 59    
Maximum Humidity 65    
Minimum Humidity 45    
Precipitation  
Precipitation 0.00 in - - ()
Sea Level Pressure  
Sea Level Pressure 29.72 in    
Wind  
Wind Speed 14 mph ()    
Max Wind Speed 18 mph    
Max Gust Speed -    
Visibility 6.2 miles    
Events      
Averages and records for this station are not official NWS values.
T = Trace of Precipitation, MM = Missing Value Source: Averaged Metar Reports

Daily Weather History Graph

Daily Weather History Graph

Search for Another Location

Airport or City:

Trip Planner

Search our weather history database for the weather conditions in past years. The results will help you decide how hot, cold, wet, or windy it might be!

Date:

Astronomy

Jan. 01, 2014 Rise Set
Actual Time 11:24 AM CET 12:29 PM CET
Civil Twilight 9:17 AM CET 2:36 PM CET
Nautical Twilight 7:46 AM CET 4:07 PM CET
Astronomical Twilight 6:34 AM CET 5:20 PM CET
Moon 9:48 AM CET (1/1) 2:07 PM CET (1/1)
Length of Visible Light 5h 18m
Length of Day
1h 04m
Waning Crescent, 0% of the Moon is Illuminated
Jan 1
Waning Crescent
Jan 1
New
Jan 8
First Quarter
Jan 16
Full
Jan 24
Last Quarter

Hourly Weather History & Observations

Time (CET) Temp. Windchill Dew Point Humidity Pressure Visibility Wind Dir Wind Speed Gust Speed Precip Events Conditions
12:00 AM 35 °F - 25 °F 56% 29.67 in - East 13.4 mph - -  
12:20 AM 35.6 °F 26.6 °F 24.8 °F 65% 29.65 in 6.2 mi East 13.8 mph - N/A   Mostly Cloudy
12:50 AM 35.6 °F 26.6 °F 24.8 °F 65% 29.65 in 6.2 mi East 13.8 mph - N/A   Overcast
1:00 AM 35 °F - 25 °F 56% 29.68 in - East 13.4 mph - -  
1:20 AM 35.6 °F 27.1 °F 24.8 °F 65% 29.65 in 6.2 mi ESE 12.7 mph - N/A   Overcast
1:50 AM 35.6 °F 27.1 °F 24.8 °F 65% 29.68 in 6.2 mi East 12.7 mph - N/A   Overcast
2:00 AM 35 °F - 24 °F 54% 29.69 in - East 15.7 mph - -  
2:20 AM 35.6 °F 26.2 °F 24.8 °F 65% 29.68 in 6.2 mi East 15.0 mph - N/A   Overcast
2:50 AM 35.6 °F 26.6 °F 24.8 °F 65% 29.68 in 6.2 mi East 13.8 mph - N/A   Mostly Cloudy
3:00 AM 35 °F - 24 °F 53% 29.69 in - East 13.4 mph - -  
3:20 AM 35.6 °F 26.2 °F 23.0 °F 60% 29.68 in 6.2 mi ESE 15.0 mph - N/A   Overcast
3:50 AM 35.6 °F 26.6 °F 24.8 °F 65% 29.68 in 6.2 mi ESE 13.8 mph - N/A   Overcast
4:00 AM 35 °F - 24 °F 52% 29.70 in - ESE 15.7 mph - -  
4:20 AM 33.8 °F 23.5 °F 23.0 °F 65% 29.68 in 6.2 mi East 16.1 mph - N/A   Overcast
4:50 AM 33.8 °F 23.2 °F 23.0 °F 65% 29.68 in 6.2 mi ESE 17.3 mph - N/A   Overcast
5:00 AM 34 °F - 23 °F 54% 29.70 in - East 17.9 mph - -  
5:20 AM 33.8 °F 24.8 °F 23.0 °F 65% 29.68 in 6.2 mi ESE 12.7 mph - N/A   Overcast
5:50 AM 33.8 °F 23.2 °F 23.0 °F 65% 29.68 in 6.2 mi ESE 17.3 mph - N/A   Overcast
6:00 AM 34 °F - 23 °F 52% 29.71 in - ESE 15.7 mph - -  
6:20 AM 33.8 °F 23.9 °F 23.0 °F 65% 29.68 in 6.2 mi ESE 15.0 mph - N/A   Overcast
6:50 AM 33.8 °F 24.3 °F 23.0 °F 65% 29.68 in 6.2 mi ESE 13.8 mph - N/A   Overcast
7:00 AM 35 °F - 23 °F 49% 29.70 in - ESE 15.7 mph - -  
7:20 AM 33.8 °F 23.5 °F 23.0 °F 65% 29.68 in 6.2 mi ESE 16.1 mph - N/A   Overcast
7:50 AM 35.6 °F 25.9 °F 23.0 °F 60% 29.71 in 6.2 mi ESE 16.1 mph - N/A   Overcast
8:00 AM 35 °F - 23 °F 48% 29.72 in - ESE 15.7 mph - -  
8:20 AM 35.6 °F 25.5 °F 23.0 °F 60% 29.71 in 6.2 mi ESE 17.3 mph - N/A   Overcast
8:50 AM 35.6 °F 25.9 °F 23.0 °F 60% 29.71 in 6.2 mi ESE 16.1 mph - N/A   Mostly Cloudy
9:00 AM 35 °F - 23 °F 49% 29.73 in - ESE 15.7 mph - -  
10:00 AM 35 °F - 24 °F 51% 29.75 in - ESE 17.9 mph - -  
10:20 AM 35.6 °F 25.2 °F 23.0 °F 60% 29.74 in 6.2 mi ESE 18.4 mph - N/A   Overcast
10:50 AM 35.6 °F 25.5 °F 24.8 °F 65% 29.74 in 6.2 mi ESE 17.3 mph - N/A   Overcast
11:00 AM 35 °F - 24 °F 53% 29.75 in - ESE 15.7 mph - -  
11:20 AM 35.6 °F 25.9 °F 24.8 °F 65% 29.74 in 6.2 mi ESE 16.1 mph - N/A   Overcast
11:50 AM 35.6 °F 25.9 °F 23.0 °F 60% 29.74 in 6.2 mi ESE 16.1 mph - N/A   Overcast
12:00 PM 35 °F - 23 °F 51% 29.76 in - ESE 17.9 mph - -  
12:20 PM 35.6 °F 26.6 °F 23.0 °F 60% 29.74 in 6.2 mi ESE 13.8 mph - N/A   Mostly Cloudy
12:50 PM 35.6 °F 25.9 °F 23.0 °F 60% 29.74 in 6.2 mi ESE 16.1 mph - N/A   Mostly Cloudy
1:00 PM 35 °F - 23 °F 50% 29.78 in - ESE 13.4 mph - -  
1:20 PM 35.6 °F 26.6 °F 23.0 °F 60% 29.77 in 6.2 mi ESE 13.8 mph - N/A   Mostly Cloudy
1:50 PM 35.6 °F 26.6 °F 23.0 °F 60% 29.77 in 6.2 mi ESE 13.8 mph - N/A   Mostly Cloudy
2:00 PM 35 °F - 23 °F 51% 29.78 in - ESE 13.4 mph - -  
2:20 PM 35.6 °F 25.9 °F 23.0 °F 60% 29.77 in 6.2 mi ESE 16.1 mph - N/A   Mostly Cloudy
2:50 PM 35.6 °F 26.6 °F 23.0 °F 60% 29.77 in 6.2 mi ESE 13.8 mph - N/A   Scattered Clouds
3:00 PM 35 °F - 23 °F 50% 29.78 in - ESE 15.7 mph - -  
3:20 PM 35.6 °F 25.5 °F 23.0 °F 60% 29.77 in 6.2 mi ESE 17.3 mph - N/A   Partly Cloudy
3:50 PM 33.8 °F 23.9 °F 23.0 °F 65% 29.74 in 6.2 mi ESE 15.0 mph - N/A   Partly Cloudy
4:00 PM 34 °F - 23 °F 52% 29.77 in - ESE 15.7 mph - -  
4:20 PM 33.8 °F 25.3 °F 23.0 °F 65% 29.74 in - SE 11.5 mph - N/A   Clear
4:50 PM 33.8 °F 23.5 °F 23.0 °F 65% 29.74 in - ESE 16.1 mph - N/A   Clear
5:00 PM 33 °F - 22 °F 54% 29.75 in - ESE 15.7 mph - -  
5:50 PM 33.8 °F 23.5 °F 21.2 °F 60% 29.74 in - ESE 16.1 mph - N/A   Clear
6:00 PM 33 °F - 22 °F 52% 29.76 in - ESE 15.7 mph - -  
6:50 PM 33.8 °F 23.5 °F 21.2 °F 60% 29.74 in - ESE 16.1 mph - N/A   Clear
7:00 PM 33 °F - 22 °F 51% 29.75 in - ESE 17.9 mph - -  
7:50 PM 32.0 °F 21.2 °F 21.2 °F 64% 29.74 in - ESE 16.1 mph - N/A   Clear
8:00 PM 32 °F - 21 °F 53% 29.75 in - ESE 15.7 mph - -  
8:50 PM 32.0 °F 21.6 °F 21.2 °F 64% 29.74 in - ESE 15.0 mph - N/A   Clear
9:00 PM 32 °F - 21 °F 52% 29.74 in - ESE 17.9 mph - -  
9:50 PM 32.0 °F 22.1 °F 21.2 °F 64% 29.71 in - ESE 13.8 mph - N/A   Clear
10:00 PM 33 °F - 21 °F 49% 29.73 in - ESE 13.4 mph - -  
10:50 PM 33.8 °F 24.3 °F 21.2 °F 60% 29.71 in 6.2 mi ESE 13.8 mph - N/A   Unknown
11:00 PM 34 °F - 21 °F 45% 29.72 in - ESE 15.7 mph - -  
11:20 PM 33.8 °F 24.3 °F 21.2 °F 60% 29.71 in 6.2 mi ESE 13.8 mph - N/A   Partly Cloudy
11:50 PM 33.8 °F 23.9 °F 21.2 °F 60% 29.68 in 6.2 mi ESE 15.0 mph - N/A   Unknown